Flag for Germany Weather past 2 weeks in Freiberg, Saxony, Germany

Now
64 °F

Scattered clouds.


Feels Like: 64 °F
Forecast: 46 / 64 °F
Wind: 3 mph from North

Location: Dresden-Klotzsche

Current Time: Oct 2, 2014 at 1:27:28 PM

Latest Report: Oct 2, 2014 at 12:50 PM


Visibility: 4 mi

Pressure: 30.39 "Hg

Humidity: 73%

Dew point: 55 °F

Location of FreibergLocation

Historic Weather in Freiberg — Graph

°F

Freiberg temperature yesterday

Maximum temperature yesterday: 66 °F (at 1:50 PM)
Minimum temperature yesterday: 55 °F (at 11:50 PM)
Average temperature yesterday: 61 °F

Past Weeks' High & Low Weather Summary

 TemperatureHumidityPressure
High75 °F (Sep 29, 2:50 PM)100% (Sep 19, 10:20 PM)30.39 "Hg (Sep 19, 10:20 PM)
Low39 °F (Sep 24, 4:20 AM)44% (Sep 17, 2:50 PM)29.83 "Hg (Sep 21, 6:20 PM)
Average58 °F84%30.09 "Hg
* Reported Sep 17 12:20 PM — Oct 2 12:20 PM, Freiberg, Weather by CustomWeather, © 2014

Note: Actual official high and low records may vary slightly from our data, if they occured in-between our weather recording intervals... More about our weather records

Advertising

Freiberg weather history for previous 24 hours

 ConditionsComfort  
Time TempWeatherWind HumidityBarometerVisibility
12:20 PM
Oct 2
63 °FScattered clouds.2 mph83%30.39 "Hg4 mi
11:50 AM61 °FClear.2 mph83%30.39 "Hg4 mi
11:20 AM61 °FFog.2 mph88%30.39 "Hg3 mi
10:50 AM59 °FFog.1 mph88%30.39 "Hg3 mi
10:20 AM59 °FFog.1 mph88%30.39 "Hg3 mi
9:50 AM57 °FFog.1 mph94%30.39 "Hg3 mi
9:20 AM55 °FFog.3 mph94%30.39 "Hg3 mi
8:50 AM55 °FFog.2 mph94%30.39 "Hg3 mi
8:20 AM54 °FFog.2 mph100%30.39 "Hg3 mi
7:50 AM54 °FFog.2 mph94%30.39 "Hg3 mi
7:20 AM52 °FFog.3 mph100%30.39 "Hg3 mi
6:50 AM52 °FFog.2 mph100%30.36 "Hg2 mi
6:20 AM54 °FFog.2 mph100%30.36 "Hg2 mi
5:50 AM54 °FFog.3 mph100%30.36 "Hg2 mi
5:20 AM54 °FFog.3 mph100%30.36 "Hg2 mi
4:50 AM54 °FFog.2 mph100%30.36 "Hg2 mi
4:20 AM54 °FFog.3 mph100%30.36 "Hg2 mi
3:50 AM54 °FFog.3 mph100%30.36 "Hg2 mi
3:20 AM54 °FFog.3 mph100%30.36 "Hg2 mi
2:50 AM54 °FFog.2 mph100%30.36 "Hg2 mi
2:20 AM54 °FFog.3 mph100%30.36 "Hg2 mi
1:50 AM54 °FFog.3 mph100%30.36 "Hg2 mi
1:20 AM55 °FFog.2 mph94%30.36 "Hg2 mi
12:50 AM55 °FFog.3 mph94%30.36 "Hg2 mi
12:20 AM55 °FFog.3 mph100%30.36 "Hg2 mi
11:50 PM
Oct 1
55 °FFog.3 mph100%30.36 "Hg2 mi
11:20 PM57 °FFog.3 mph88%30.36 "Hg3 mi
10:50 PM57 °FClear.5 mph94%30.33 "Hg4 mi
10:20 PM59 °FClear.3 mph88%30.33 "Hg4 mi
9:50 PM59 °FPassing clouds.2 mph88%30.33 "Hg5 mi
9:20 PM61 °FPassing clouds.1 mph83%30.33 "Hg6 mi
8:50 PM61 °FPassing clouds.2 mph83%30.33 "Hg6 mi
8:20 PM61 °FPassing clouds.2 mph83%30.33 "HgN/A
7:50 PM61 °FClear.1 mph83%30.33 "Hg10 mi
7:20 PM63 °FScattered clouds.1 mph77%30.33 "HgN/A
6:50 PM63 °FBroken clouds.1 mph73%30.33 "HgN/A
6:20 PM64 °FPassing clouds.3 mph73%30.30 "HgN/A
5:50 PM66 °FPassing clouds.5 mph68%30.30 "HgN/A
5:20 PM66 °FPassing clouds.5 mph68%30.30 "HgN/A
4:50 PM66 °FPassing clouds.6 mph64%30.30 "HgN/A
4:20 PM66 °FPassing clouds.6 mph68%30.30 "HgN/A
3:50 PM66 °FPassing clouds.7 mph64%30.30 "HgN/A
3:20 PM66 °FPassing clouds.7 mph68%30.30 "HgN/A
2:50 PM66 °FPassing clouds.7 mph64%30.30 "HgN/A
2:20 PM66 °FPassing clouds.7 mph64%30.30 "HgN/A
1:50 PM66 °FPassing clouds.6 mph73%30.30 "Hg6 mi
1:20 PM64 °FPassing clouds.5 mph78%30.33 "Hg5 mi
Weather by CustomWeather, © 2014

See weather overviewHow to use our weather pages